Blythe, CA

7:49 AM PDT on July 21, 2017 (GMT -0700)
Blythe

Weather History for KBLH - November, 2011

Change the Weather History Date:

Sunday, November 20, 2011

  Actual Average Record
Temperature  
Mean Temperature 58 °F -  
Max Temperature 68 °F 72 °F 86 °F (2006)
Min Temperature 48 °F 46 °F 28 °F (1994)
Degree Days  
Heating Degree Days 7    
Growing Degree Days 8 (Base 50)    
Moisture  
Dew Point 38 °F    
Average Humidity 47    
Maximum Humidity 64    
Minimum Humidity 31    
Precipitation  
Precipitation 0.00 in - - ()
Sea Level Pressure  
Sea Level Pressure 29.91 in    
Wind  
Wind Speed 6 mph (South)    
Max Wind Speed 13 mph    
Max Gust Speed -    
Visibility 10 miles    
Events      
Averages and records for this station are not official NWS values.
T = Trace of Precipitation, MM = Missing Value Source: NWS Daily Summary

Daily Weather History Graph

Daily Weather History Graph

Search for Another Location

Airport or City:

Trip Planner

Search our weather history database for the weather conditions in past years. The results will help you decide how hot, cold, wet, or windy it might be!

Date:

Astronomy

Nov. 20, 2011 Rise Set
Actual Time 6:15 AM PST 4:33 PM PST
Civil Twilight 5:48 AM PST 5:00 PM PST
Nautical Twilight 5:18 AM PST 5:30 PM PST
Astronomical Twilight 4:48 AM PST 6:00 PM PST
Moon 1:02 AM PST (11/20) 1:13 PM PST (11/20)
Length of Visible Light 11h 11m
Length of Day
10h 18m
Waning Crescent, 26% of the Moon is Illuminated
Nov 20
Waning Crescent
Nov 24
New
Dec 2
First Quarter
Dec 10
Full
Dec 17
Last Quarter

Hourly Weather History & Observations

Time (PST) Temp. Dew Point Humidity Pressure Visibility Wind Dir Wind Speed Gust Speed Precip Events Conditions
12:52 AM 52.0 °F 37.9 °F 59% 29.86 in 10.0 mi SSE 8.1 mph - N/A   Clear
1:52 AM 52.0 °F 37.9 °F 59% 29.86 in 10.0 mi South 6.9 mph - N/A   Clear
2:52 AM 50.0 °F 37.9 °F 63% 29.87 in 10.0 mi Calm Calm - N/A   Clear
3:52 AM 51.1 °F 37.9 °F 61% 29.87 in 10.0 mi Calm Calm - N/A   Clear
4:52 AM 50.0 °F 37.9 °F 63% 29.88 in 10.0 mi South 4.6 mph - N/A   Clear
5:52 AM 48.9 °F 37.0 °F 64% 29.91 in 10.0 mi South 6.9 mph - N/A   Clear
6:52 AM 52.0 °F 39.0 °F 61% 29.93 in 10.0 mi Variable 3.5 mph - N/A   Overcast
8:52 AM 60.1 °F 39.9 °F 47% 29.96 in 10.0 mi South 9.2 mph - N/A   Scattered Clouds
9:52 AM 61.0 °F 37.9 °F 42% 29.98 in 10.0 mi South 10.4 mph - N/A   Overcast
10:52 AM 64.0 °F 37.0 °F 37% 29.97 in 10.0 mi South 9.2 mph - N/A   Mostly Cloudy
11:52 AM 66.0 °F 37.0 °F 34% 29.94 in 10.0 mi SSE 6.9 mph - N/A   Mostly Cloudy
12:52 PM 68.0 °F 39.0 °F 35% 29.91 in 10.0 mi South 12.7 mph - N/A   Clear
1:52 PM 68.0 °F 37.9 °F 33% 29.90 in 10.0 mi South 8.1 mph - N/A   Clear
2:52 PM 68.0 °F 39.0 °F 35% 29.90 in 10.0 mi South 12.7 mph - N/A   Clear
3:52 PM 66.9 °F 35.1 °F 31% 29.91 in 10.0 mi SSW 9.2 mph - N/A   Clear
4:52 PM 66.0 °F 36.0 °F 33% 29.90 in 10.0 mi South 5.8 mph - N/A   Clear
5:52 PM 64.0 °F 37.9 °F 38% 29.90 in 10.0 mi South 3.5 mph - N/A   Clear
6:52 PM 62.1 °F 37.9 °F 41% 29.91 in 10.0 mi Calm Calm - N/A   Clear
7:52 PM 61.0 °F 37.9 °F 42% 29.92 in 10.0 mi Calm Calm - N/A   Clear
8:52 PM 59.0 °F 37.9 °F 46% 29.94 in 10.0 mi Calm Calm - N/A   Clear
9:52 PM 59.0 °F 37.9 °F 46% 29.94 in 10.0 mi West 3.5 mph - N/A   Clear
10:52 PM 57.0 °F 37.9 °F 49% 29.94 in 10.0 mi Calm Calm - N/A   Clear
11:52 PM 59.0 °F 41.0 °F 51% 29.94 in 10.0 mi WSW 3.5 mph - N/A   Overcast